LZB456 LIMC-LBSF

Flight info

Callsign LZB456
Flight time 1h 37m
Altitude 35000
Route OSKOR L615 ADOSA DCT PEVAL DCT NISVA
Aircraft A320/M-SDE3FGHIRWY/LB1

Departure

Time 2026-05-06 16:43
Airport Milan Malpensa International Airport (LIMC)

Arrival

Time 2026-05-06 18:21
Airport Sofia Airport (LBSF)
Time Latitude Longitude Altitude Speed Heading
2026-05-06 16:13 45.62543 8.71674 732 ft 0 kts 169°
2026-05-06 16:27 45.62544 8.71674 732 ft 1 kts 169°
2026-05-06 16:27 45.62558 8.71670 732 ft 2 kts 169°
2026-05-06 16:28 45.62573 8.71667 732 ft 2 kts 169°
2026-05-06 16:28 45.62582 8.71664 733 ft 2 kts 168°
2026-05-06 16:28 45.62596 8.71656 733 ft 2 kts 146°
2026-05-06 16:28 45.62608 8.71642 733 ft 2 kts 129°
2026-05-06 16:29 45.62616 8.71623 733 ft 2 kts 111°
2026-05-06 16:29 45.62619 8.71602 733 ft 2 kts 94°
2026-05-06 16:29 45.62619 8.71586 733 ft 0 kts 81°
2026-05-06 16:29 45.62619 8.71589 733 ft 3 kts 82°
2026-05-06 16:30 45.62627 8.71651 733 ft 7 kts 79°
2026-05-06 16:30 45.62633 8.71696 733 ft 5 kts 79°
2026-05-06 16:30 45.62637 8.71724 733 ft 0 kts 79°
2026-05-06 16:34 45.62645 8.71783 733 ft 6 kts 79°
2026-05-06 16:34 45.62626 8.71835 733 ft 8 kts 159°
2026-05-06 16:34 45.62556 8.71857 731 ft 12 kts 169°
2026-05-06 16:34 45.62460 8.71884 729 ft 15 kts 169°
2026-05-06 16:35 45.62331 8.71920 727 ft 20 kts 169°
2026-05-06 16:35 45.62185 8.71961 724 ft 22 kts 170°
2026-05-06 16:35 45.61976 8.72018 719 ft 23 kts 169°
2026-05-06 16:35 45.61866 8.72049 717 ft 24 kts 170°
2026-05-06 16:36 45.61695 8.72096 713 ft 24 kts 169°
2026-05-06 16:36 45.61522 8.72144 708 ft 25 kts 168°
2026-05-06 16:36 45.61342 8.72194 704 ft 26 kts 169°
2026-05-06 16:36 45.61174 8.72241 700 ft 24 kts 168°
2026-05-06 16:37 45.61002 8.72287 697 ft 25 kts 169°
2026-05-06 16:37 45.60831 8.72335 694 ft 25 kts 169°
2026-05-06 16:37 45.60679 8.72387 692 ft 18 kts 145°
2026-05-06 16:37 45.60636 8.72551 691 ft 18 kts 95°
2026-05-06 16:38 45.60622 8.72733 690 ft 18 kts 96°
2026-05-06 16:38 45.60608 8.72917 690 ft 18 kts 96°
2026-05-06 16:38 45.60595 8.73101 690 ft 18 kts 96°
2026-05-06 16:38 45.60630 8.73265 690 ft 17 kts 33°
2026-05-06 16:39 45.60741 8.73335 691 ft 17 kts 24°
2026-05-06 16:39 45.60863 8.73403 691 ft 20 kts 12°
2026-05-06 16:39 45.61015 8.73377 693 ft 22 kts 349°
2026-05-06 16:39 45.61165 8.73335 695 ft 20 kts 349°
2026-05-06 16:40 45.61300 8.73298 697 ft 19 kts 349°
2026-05-06 16:40 45.61427 8.73264 698 ft 18 kts 349°
2026-05-06 16:40 45.61563 8.73227 702 ft 19 kts 355°
2026-05-06 16:40 45.61628 8.73329 701 ft 15 kts 82°
2026-05-06 16:41 45.61615 8.73479 700 ft 16 kts 121°
2026-05-06 16:41 45.61591 8.73640 699 ft 17 kts 82°
2026-05-06 16:41 45.61666 8.73725 700 ft 12 kts 355°
2026-05-06 16:41 45.61692 8.73718 700 ft 0 kts 349°
2026-05-06 16:42 45.61789 8.73691 702 ft 46 kts 349°
2026-05-06 16:42 45.62341 8.73540 715 ft 111 kts 348°
2026-05-06 16:43 45.63295 8.73276 766 ft 160 kts 350°
2026-05-06 16:43 45.64413 8.73005 1246 ft 166 kts 352°
2026-05-06 16:43 45.65573 8.72870 1839 ft 171 kts 11°
2026-05-06 16:43 45.66510 8.73774 2444 ft 168 kts 64°
2026-05-06 16:44 45.66912 8.75397 2969 ft 179 kts 73°
2026-05-06 16:44 45.67389 8.77139 3430 ft 196 kts 67°
2026-05-06 16:44 45.68245 8.78731 3861 ft 213 kts 44°
2026-05-06 16:44 45.69421 8.80048 4065 ft 220 kts 38°
2026-05-06 16:45 45.71168 8.81869 4732 ft 241 kts 39°
2026-05-06 16:45 45.72019 8.82927 5288 ft 241 kts 54°
2026-05-06 16:45 45.72713 8.85062 6024 ft 242 kts 85°
2026-05-06 16:45 45.72699 8.87508 6605 ft 253 kts 97°
2026-05-06 16:46 45.72575 8.90088 7113 ft 271 kts 96°
2026-05-06 16:46 45.72449 8.92833 7817 ft 280 kts 96°
2026-05-06 16:46 45.72329 8.95590 8636 ft 283 kts 96°
2026-05-06 16:46 45.72210 8.98402 9458 ft 286 kts 96°
2026-05-06 16:47 45.72089 9.01272 10199 ft 292 kts 96°
2026-05-06 16:47 45.71960 9.04223 10653 ft 308 kts 96°
2026-05-06 16:47 45.71823 9.07354 11020 ft 326 kts 96°
2026-05-06 16:47 45.71677 9.10707 11351 ft 344 kts 96°
2026-05-06 16:48 45.71526 9.14180 11727 ft 360 kts 96°
2026-05-06 16:48 45.71370 9.17797 12381 ft 366 kts 96°
2026-05-06 16:48 45.71214 9.21413 13050 ft 370 kts 96°
2026-05-06 16:48 45.71053 9.25061 13741 ft 374 kts 96°
2026-05-06 16:49 45.70887 9.28809 14426 ft 378 kts 96°
2026-05-06 16:49 45.70725 9.32546 15073 ft 382 kts 96°
2026-05-06 16:49 45.70559 9.36323 15746 ft 385 kts 96°
2026-05-06 16:49 45.70388 9.40161 16405 ft 388 kts 97°
2026-05-06 16:50 45.70212 9.43995 17003 ft 391 kts 97°
2026-05-06 16:50 45.70033 9.47900 17578 ft 395 kts 97°
2026-05-06 16:50 45.69854 9.51785 18138 ft 399 kts 97°
2026-05-06 16:50 45.69667 9.55768 18681 ft 404 kts 98°
2026-05-06 16:51 45.69476 9.59777 19251 ft 407 kts 97°
2026-05-06 16:51 45.69280 9.63893 19776 ft 412 kts 98°
2026-05-06 16:51 45.69080 9.68062 20227 ft 418 kts 98°
2026-05-06 16:51 45.68877 9.72283 20704 ft 423 kts 99°
2026-05-06 16:52 45.68674 9.76481 21218 ft 426 kts 99°
2026-05-06 16:52 45.68464 9.80766 21698 ft 431 kts 99°
2026-05-06 16:52 45.68253 9.85021 22137 ft 436 kts 99°
2026-05-06 16:52 45.68037 9.89340 22599 ft 440 kts 99°
2026-05-06 16:53 45.67816 9.93741 23019 ft 445 kts 99°
2026-05-06 16:53 45.67590 9.98182 23448 ft 449 kts 99°
2026-05-06 16:53 45.67363 10.02657 23879 ft 453 kts 100°
2026-05-06 16:53 45.67134 10.07104 24298 ft 457 kts 100°
2026-05-06 16:54 45.66899 10.11638 24700 ft 461 kts 100°
2026-05-06 16:54 45.66658 10.16254 25138 ft 464 kts 100°
2026-05-06 16:54 45.66418 10.20826 25548 ft 466 kts 100°
2026-05-06 16:54 45.66174 10.25428 25922 ft 469 kts 100°
2026-05-06 16:55 45.65924 10.30095 26294 ft 472 kts 100°
2026-05-06 16:55 45.65673 10.34774 26711 ft 474 kts 101°
2026-05-06 16:55 45.65422 10.39440 27244 ft 472 kts 101°
2026-05-06 16:55 45.65167 10.44097 27732 ft 471 kts 101°
2026-05-06 16:56 45.64917 10.48767 28252 ft 471 kts 100°
2026-05-06 16:56 45.64786 10.53426 28716 ft 473 kts 97°
2026-05-06 16:56 45.64753 10.58102 29167 ft 474 kts 97°
2026-05-06 16:56 45.64736 10.62775 29590 ft 474 kts 96°
2026-05-06 16:57 45.64716 10.67450 30012 ft 474 kts 97°
2026-05-06 16:57 45.64689 10.72179 30431 ft 473 kts 97°
2026-05-06 16:57 45.64655 10.76869 30856 ft 473 kts 98°
2026-05-06 16:57 45.64617 10.81583 31274 ft 472 kts 98°
2026-05-06 16:58 45.64579 10.86242 31629 ft 473 kts 97°
2026-05-06 16:58 45.64542 10.90880 32039 ft 471 kts 97°
2026-05-06 16:58 45.64504 10.95546 32430 ft 471 kts 98°
2026-05-06 16:58 45.64386 11.00237 32811 ft 467 kts 101°
2026-05-06 16:59 45.64071 11.04791 33153 ft 463 kts 105°
2026-05-06 16:59 45.63552 11.09277 33484 ft 458 kts 109°
2026-05-06 16:59 45.62924 11.13742 33748 ft 459 kts 109°
2026-05-06 16:59 45.62285 11.18191 34011 ft 460 kts 109°
2026-05-06 17:00 45.61636 11.22688 34269 ft 461 kts 109°
2026-05-06 17:00 45.60998 11.27126 34492 ft 463 kts 109°
2026-05-06 17:00 45.60347 11.31665 34706 ft 464 kts 109°
2026-05-06 17:00 45.59700 11.36186 34838 ft 465 kts 109°
2026-05-06 17:01 45.59057 11.40679 34857 ft 465 kts 109°
2026-05-06 17:01 45.57761 11.49725 34858 ft 466 kts 108°
2026-05-06 17:02 45.56460 11.58746 34859 ft 464 kts 108°
2026-05-06 17:02 45.55147 11.67791 35054 ft 468 kts 109°
2026-05-06 17:02 45.54488 11.72331 35326 ft 466 kts 109°
2026-05-06 17:03 45.53834 11.76825 35558 ft 464 kts 108°
2026-05-06 17:03 45.53173 11.81345 35748 ft 464 kts 108°
2026-05-06 17:03 45.52520 11.85801 35917 ft 464 kts 108°
2026-05-06 17:03 45.51852 11.90322 36116 ft 464 kts 108°
2026-05-06 17:04 45.51191 11.94795 36292 ft 463 kts 108°
2026-05-06 17:04 45.50532 11.99236 36468 ft 463 kts 108°
2026-05-06 17:04 45.49868 12.03705 36699 ft 463 kts 108°
2026-05-06 17:04 45.49195 12.08215 36870 ft 463 kts 108°
2026-05-06 17:05 45.48531 12.12653 36870 ft 463 kts 108°
2026-05-06 17:05 45.47187 12.21612 36875 ft 463 kts 108°
2026-05-06 17:06 45.45837 12.30540 36886 ft 463 kts 108°
2026-05-06 17:06 45.44482 12.39453 36874 ft 464 kts 107°
2026-05-06 17:07 45.43113 12.48410 36869 ft 464 kts 107°
2026-05-06 17:07 45.41745 12.57317 36871 ft 464 kts 107°
2026-05-06 17:08 45.40359 12.66297 36868 ft 464 kts 108°
2026-05-06 17:08 45.38972 12.75259 36866 ft 464 kts 108°
2026-05-06 17:09 45.37577 12.84211 36863 ft 465 kts 108°
2026-05-06 17:09 45.36172 12.93151 36865 ft 465 kts 108°
2026-05-06 17:10 45.34764 13.02055 36865 ft 466 kts 108°
2026-05-06 17:10 45.33342 13.11016 36868 ft 466 kts 108°
2026-05-06 17:11 45.31913 13.19957 36873 ft 464 kts 108°
2026-05-06 17:11 45.30372 13.28780 36878 ft 462 kts 110°
2026-05-06 17:12 45.28666 13.37506 36884 ft 462 kts 110°
2026-05-06 17:12 45.26934 13.46290 36889 ft 462 kts 110°
2026-05-06 17:13 45.25196 13.55081 36894 ft 462 kts 110°
2026-05-06 17:13 45.23469 13.63794 36897 ft 462 kts 110°
2026-05-06 17:14 45.21742 13.72501 36900 ft 461 kts 111°
2026-05-06 17:14 45.20004 13.81222 36909 ft 461 kts 111°
2026-05-06 17:15 45.18248 13.89979 36910 ft 462 kts 111°
2026-05-06 17:15 45.16496 13.98665 36911 ft 462 kts 111°
2026-05-06 17:16 45.14727 14.07392 36916 ft 461 kts 110°
2026-05-06 17:16 45.12953 14.16116 36912 ft 462 kts 110°
2026-05-06 17:17 45.11178 14.24807 36917 ft 462 kts 110°
2026-05-06 17:17 45.09391 14.33508 36914 ft 462 kts 110°
2026-05-06 17:18 45.07591 14.42232 36915 ft 463 kts 110°
2026-05-06 17:18 45.05797 14.50907 36916 ft 463 kts 110°
2026-05-06 17:19 45.03982 14.59634 36921 ft 463 kts 110°
2026-05-06 17:19 45.02177 14.68281 36921 ft 463 kts 111°
2026-05-06 17:20 45.00358 14.76998 36925 ft 463 kts 111°
2026-05-06 17:20 44.98536 14.85669 36928 ft 463 kts 110°
2026-05-06 17:21 44.96697 14.94369 36942 ft 463 kts 110°
2026-05-06 17:21 44.94855 15.03046 36963 ft 463 kts 110°
2026-05-06 17:22 44.93013 15.11684 36963 ft 463 kts 110°
2026-05-06 17:22 44.91154 15.20369 36951 ft 463 kts 110°
2026-05-06 17:23 44.89279 15.29062 36944 ft 464 kts 111°
2026-05-06 17:23 44.87382 15.37711 36943 ft 465 kts 111°
2026-05-06 17:24 44.85476 15.46423 36950 ft 466 kts 111°
2026-05-06 17:24 44.83586 15.55082 36952 ft 466 kts 111°
2026-05-06 17:25 44.81686 15.63767 36949 ft 466 kts 111°
2026-05-06 17:25 44.79776 15.72489 36957 ft 467 kts 111°
2026-05-06 17:26 44.77868 15.81172 36957 ft 466 kts 111°
2026-05-06 17:26 44.75949 15.89855 36954 ft 468 kts 111°
2026-05-06 17:27 44.74020 15.98540 36953 ft 467 kts 112°
2026-05-06 17:27 44.72084 16.07224 36957 ft 468 kts 112°
2026-05-06 17:28 44.70128 16.15933 36961 ft 468 kts 111°
2026-05-06 17:28 44.68169 16.24649 36965 ft 467 kts 111°
2026-05-06 17:29 44.66210 16.33322 36969 ft 468 kts 112°
2026-05-06 17:29 44.64256 16.41936 36971 ft 467 kts 111°
2026-05-06 17:30 44.62280 16.50608 36975 ft 468 kts 111°
2026-05-06 17:30 44.60290 16.59305 36979 ft 469 kts 111°
2026-05-06 17:31 44.58298 16.67991 36974 ft 469 kts 112°
2026-05-06 17:31 44.56319 16.76630 36981 ft 468 kts 112°
2026-05-06 17:32 44.54321 16.85274 36986 ft 468 kts 112°
2026-05-06 17:32 44.52314 16.93918 37005 ft 469 kts 112°
2026-05-06 17:33 44.50284 17.02621 36999 ft 469 kts 112°
2026-05-06 17:33 44.48272 17.11216 37006 ft 470 kts 112°
2026-05-06 17:34 44.46233 17.19891 37009 ft 471 kts 112°
2026-05-06 17:34 44.44179 17.28593 37012 ft 471 kts 112°
2026-05-06 17:35 44.42124 17.37263 37003 ft 472 kts 111°
2026-05-06 17:35 44.40061 17.45939 37005 ft 471 kts 111°
2026-05-06 17:36 44.36954 17.58946 36995 ft 471 kts 111°
2026-05-06 17:36 44.34871 17.67623 36996 ft 472 kts 112°
2026-05-06 17:37 44.32790 17.76294 36986 ft 472 kts 112°
2026-05-06 17:37 44.30697 17.84954 36984 ft 473 kts 111°
2026-05-06 17:38 44.28606 17.93570 36981 ft 473 kts 111°
2026-05-06 17:38 44.26496 18.02231 36984 ft 473 kts 111°
2026-05-06 17:39 44.24365 18.10934 36985 ft 474 kts 111°
2026-05-06 17:39 44.22241 18.19585 36995 ft 473 kts 111°
2026-05-06 17:40 44.20114 18.28206 37003 ft 473 kts 111°
2026-05-06 17:40 44.17980 18.36834 37007 ft 473 kts 111°
2026-05-06 17:41 44.15841 18.45435 37001 ft 472 kts 111°
2026-05-06 17:41 44.13702 18.54008 37005 ft 471 kts 111°
2026-05-06 17:42 44.11553 18.62587 37014 ft 472 kts 111°
2026-05-06 17:42 44.09391 18.71220 37007 ft 470 kts 111°
2026-05-06 17:43 44.07253 18.79725 37012 ft 470 kts 111°
2026-05-06 17:43 44.05081 18.88308 37016 ft 470 kts 111°
2026-05-06 17:44 44.02908 18.96873 37013 ft 471 kts 111°
2026-05-06 17:44 44.00728 19.05409 37018 ft 470 kts 111°
2026-05-06 17:45 43.98543 19.13952 37016 ft 470 kts 111°
2026-05-06 17:45 43.96367 19.22427 37014 ft 470 kts 111°
2026-05-06 17:46 43.94175 19.30923 37022 ft 471 kts 111°
2026-05-06 17:46 43.91973 19.39432 37011 ft 469 kts 111°
2026-05-06 17:47 43.89776 19.47898 37011 ft 468 kts 111°
2026-05-06 17:47 43.87537 19.56381 37019 ft 468 kts 111°
2026-05-06 17:48 43.86428 19.60575 37370 ft 468 kts 111°
2026-05-06 17:48 43.85304 19.64841 37118 ft 466 kts 111°
2026-05-06 17:48 43.83104 19.73231 37029 ft 466 kts 111°
2026-05-06 17:49 43.80890 19.81650 37015 ft 466 kts 111°
2026-05-06 17:49 43.78670 19.90057 37021 ft 466 kts 111°
2026-05-06 17:50 43.77554 19.94272 36658 ft 465 kts 111°
2026-05-06 17:50 43.76454 19.98423 37036 ft 466 kts 111°
2026-05-06 17:50 43.74214 20.06826 37015 ft 466 kts 111°
2026-05-06 17:51 43.71983 20.15181 36998 ft 465 kts 111°
2026-05-06 17:51 43.69738 20.23553 36990 ft 465 kts 111°
2026-05-06 17:52 43.67493 20.31905 36992 ft 465 kts 111°
2026-05-06 17:52 43.65257 20.40193 36983 ft 464 kts 111°
2026-05-06 17:53 43.63005 20.48512 36988 ft 464 kts 111°
2026-05-06 17:53 43.60742 20.56840 36996 ft 464 kts 111°
2026-05-06 17:54 43.58518 20.64997 36990 ft 463 kts 111°
2026-05-06 17:54 43.56222 20.73412 37001 ft 463 kts 111°
2026-05-06 17:55 43.53953 20.81699 37003 ft 462 kts 111°
2026-05-06 17:55 43.51688 20.89926 37014 ft 462 kts 111°
2026-05-06 17:56 43.49408 20.98178 37012 ft 462 kts 111°
2026-05-06 17:56 43.47123 21.06421 37012 ft 462 kts 111°
2026-05-06 17:57 43.44842 21.14618 37012 ft 461 kts 111°
2026-05-06 17:57 43.43697 21.18720 36853 ft 462 kts 111°
2026-05-06 17:57 43.42554 21.22811 36550 ft 460 kts 111°
2026-05-06 17:58 43.41399 21.26936 36244 ft 458 kts 111°
2026-05-06 17:58 43.40259 21.31004 35941 ft 456 kts 111°
2026-05-06 17:58 43.39127 21.35035 35642 ft 454 kts 111°
2026-05-06 17:58 43.37994 21.39065 35346 ft 455 kts 111°
2026-05-06 17:59 43.36854 21.43111 35050 ft 457 kts 111°
2026-05-06 17:59 43.35704 21.47188 34750 ft 458 kts 111°
2026-05-06 17:59 43.34557 21.51250 34450 ft 459 kts 111°
2026-05-06 17:59 43.33411 21.55301 34181 ft 459 kts 111°
2026-05-06 18:00 43.32259 21.59364 33909 ft 460 kts 111°
2026-05-06 18:00 43.31100 21.63444 33640 ft 461 kts 111°
2026-05-06 18:00 43.29923 21.67586 33365 ft 462 kts 112°
2026-05-06 18:00 43.28766 21.71660 33094 ft 463 kts 111°
2026-05-06 18:01 43.27597 21.75770 32822 ft 463 kts 111°
2026-05-06 18:01 43.26422 21.79888 32554 ft 464 kts 111°
2026-05-06 18:01 43.25244 21.84006 32201 ft 465 kts 111°
2026-05-06 18:01 43.24041 21.88200 31726 ft 465 kts 111°
2026-05-06 18:02 43.22867 21.92291 31152 ft 466 kts 111°
2026-05-06 18:02 43.21687 21.96393 30491 ft 467 kts 111°
2026-05-06 18:02 43.20498 22.00522 29811 ft 467 kts 111°
2026-05-06 18:02 43.19298 22.04682 29097 ft 467 kts 111°
2026-05-06 18:03 43.18118 22.08765 28383 ft 468 kts 111°
2026-05-06 18:03 43.16917 22.12911 27646 ft 469 kts 111°
2026-05-06 18:03 43.15713 22.17061 26914 ft 469 kts 111°
2026-05-06 18:03 43.14518 22.21174 26441 ft 463 kts 111°
2026-05-06 18:04 43.13336 22.25231 25971 ft 458 kts 111°
2026-05-06 18:04 43.12171 22.29224 25492 ft 454 kts 111°
2026-05-06 18:04 43.11008 22.33207 25000 ft 450 kts 111°
2026-05-06 18:04 43.09859 22.37137 24513 ft 446 kts 111°
2026-05-06 18:05 43.08714 22.41044 24032 ft 443 kts 111°
2026-05-06 18:05 43.07575 22.44928 23543 ft 439 kts 111°
2026-05-06 18:05 43.06441 22.48788 23060 ft 437 kts 111°
2026-05-06 18:05 43.05316 22.52613 22593 ft 434 kts 111°
2026-05-06 18:06 43.04196 22.56412 22120 ft 431 kts 111°
2026-05-06 18:06 43.03084 22.60184 21650 ft 428 kts 111°
2026-05-06 18:06 43.01986 22.63898 21189 ft 424 kts 111°
2026-05-06 18:06 43.00882 22.67631 20724 ft 421 kts 111°
2026-05-06 18:07 42.99788 22.71331 20260 ft 417 kts 111°
2026-05-06 18:07 42.98707 22.74981 19804 ft 413 kts 112°
2026-05-06 18:07 42.97504 22.78474 19297 ft 411 kts 118°
2026-05-06 18:07 42.95982 22.81768 18750 ft 408 kts 126°
2026-05-06 18:08 42.94219 22.84768 18245 ft 404 kts 130°
2026-05-06 18:08 42.92414 22.87637 17727 ft 400 kts 131°
2026-05-06 18:08 42.90594 22.90497 17213 ft 396 kts 131°
2026-05-06 18:08 42.88779 22.93348 16461 ft 400 kts 131°
2026-05-06 18:09 42.86942 22.96228 15598 ft 405 kts 131°
2026-05-06 18:09 42.85099 22.99126 14739 ft 409 kts 131°
2026-05-06 18:09 42.83246 23.02052 13884 ft 412 kts 131°
2026-05-06 18:09 42.81382 23.05001 13025 ft 414 kts 131°
2026-05-06 18:10 42.79507 23.07973 12163 ft 415 kts 131°
2026-05-06 18:10 42.77644 23.10922 11358 ft 413 kts 131°
2026-05-06 18:10 42.75784 23.13864 10689 ft 407 kts 131°
2026-05-06 18:10 42.74003 23.16753 10225 ft 397 kts 127°
2026-05-06 18:11 42.72658 23.19917 10040 ft 380 kts 117°
2026-05-06 18:11 42.71563 23.23092 9818 ft 365 kts 115°
2026-05-06 18:11 42.70515 23.26180 9585 ft 352 kts 116°
2026-05-06 18:11 42.69481 23.29148 9351 ft 340 kts 116°
2026-05-06 18:12 42.68467 23.31985 9067 ft 331 kts 117°
2026-05-06 18:12 42.67456 23.34773 8591 ft 328 kts 117°
2026-05-06 18:12 42.66441 23.37547 8102 ft 327 kts 117°
2026-05-06 18:12 42.65426 23.40302 7602 ft 326 kts 117°
2026-05-06 18:13 42.64399 23.43079 6869 ft 327 kts 117°
2026-05-06 18:13 42.63406 23.45759 6336 ft 312 kts 117°
2026-05-06 18:13 42.62455 23.48326 6099 ft 293 kts 117°
2026-05-06 18:13 42.61572 23.50701 5832 ft 272 kts 117°
2026-05-06 18:14 42.60810 23.52935 5563 ft 256 kts 109°
2026-05-06 18:14 42.60412 23.55243 5456 ft 250 kts 97°
2026-05-06 18:14 42.60253 23.57552 5423 ft 237 kts 95°
2026-05-06 18:14 42.60141 23.59741 5388 ft 223 kts 95°
2026-05-06 18:15 42.60045 23.61782 5318 ft 219 kts 90°
2026-05-06 18:15 42.60443 23.63748 5077 ft 218 kts 53°
2026-05-06 18:15 42.61589 23.65019 4806 ft 217 kts 20°
2026-05-06 18:15 42.63066 23.65372 4583 ft 213 kts
2026-05-06 18:16 42.64527 23.65487 4402 ft 207 kts
2026-05-06 18:16 42.65952 23.65598 4209 ft 202 kts 359°
2026-05-06 18:16 42.67262 23.65181 4148 ft 193 kts 325°
2026-05-06 18:16 42.68110 23.63916 4117 ft 173 kts 288°
2026-05-06 18:17 42.68400 23.62368 4163 ft 168 kts 276°
2026-05-06 18:17 42.68528 23.60833 4190 ft 163 kts 273°
2026-05-06 18:17 42.68615 23.59309 3918 ft 160 kts 272°
2026-05-06 18:17 42.68694 23.57819 3680 ft 160 kts 273°
2026-05-06 18:18 42.68779 23.56290 3485 ft 162 kts 274°
2026-05-06 18:18 42.68868 23.54807 3291 ft 154 kts 273°
2026-05-06 18:18 42.68950 23.53398 3077 ft 147 kts 273°
2026-05-06 18:18 42.69030 23.52023 2900 ft 146 kts 272°
2026-05-06 18:19 42.69112 23.50638 2718 ft 145 kts 272°
2026-05-06 18:19 42.69194 23.49279 2529 ft 145 kts 272°
2026-05-06 18:19 42.69275 23.47925 2334 ft 144 kts 272°
2026-05-06 18:19 42.69355 23.46570 2151 ft 143 kts 272°
2026-05-06 18:20 42.69438 23.45220 1975 ft 142 kts 273°
2026-05-06 18:20 42.69524 23.43885 1792 ft 141 kts 271°
2026-05-06 18:20 42.69601 23.42622 1761 ft 123 kts 271°
2026-05-06 18:20 42.69624 23.41719 1761 ft 69 kts 255°
2026-05-06 18:21 42.69438 23.41221 1761 ft 39 kts 200°
2026-05-06 18:21 42.69250 23.41157 1761 ft 22 kts 190°
2026-05-06 18:21 42.69177 23.41160 1761 ft 8 kts 159°
2026-05-06 18:21 42.69118 23.41188 1761 ft 9 kts 161°
2026-05-06 18:22 42.69064 23.41214 1761 ft 3 kts 143°
2026-05-06 18:22 42.69065 23.41264 1761 ft 7 kts 72°
2026-05-06 18:22 42.69074 23.41299 1761 ft 0 kts 72°
2026-05-06 18:23 42.69074 23.41300 1761 ft 0 kts 72°